Location: G�nzburg
(48.4565°N, 10.3217°E)
Time: 23:40:28
(UTC+02:00)

Tiangong 2 - Visible Passes

Search period start: 14 August 2018 00:00
Search period end: 24 August 2018 00:00
Orbit: 384 x 395 km, 42.8° (Epoch: 14 August)

Date Brightness Start Highest point End Pass type
(mag) Time Alt. Az. Time Alt. Az. Time Alt. Az.
19 Aug 3.0 05:30:15 10° SSW 05:32:38 19° SSE 05:35:01 10° ESE visible
20 Aug 3.3 04:34:44 14° SSE 04:34:58 15° SSE 04:36:50 10° ESE visible
21 Aug 2.6 05:11:49 16° SSW 05:13:31 24° SSE 05:16:12 10° ESE visible
22 Aug 3.1 04:16:35 18° SE 04:16:35 18° SE 04:18:14 10° ESE visible
23 Aug 2.2 04:53:41 25° SSW 04:54:25 28° S 04:57:14 10° ESE visible
